User: anonymous   Login
Location: Unspecified
(0.0000°N, 0.0000°E)
Time: 15:37:48
(UTC+00:00)
Language:

Kosmos-2135 - Orbit

View from above orbital plane
View from above orbital plane
View from above satellite
View from above satellite

Ground track
Ground track

The orbit data is extracted from the following two-line orbital elements,

1 21130U 91013A   18110.91527621 +.00000025 +00000-0 +10303-4 0  9993
2 21130 082.8256 313.2209 0064600 262.4355 096.9461 13.78512033365522
Epoch (UTC): 20 April 2018 21:57:59
Eccentricity: 0.0064600
inclination: 82.8256°
perigee height: 922 km
apogee height: 1016 km
right ascension of ascending node: 313.2209°
argument of perigee: 262.4355°
revolutions per day: 13.78512033
mean anomaly at epoch: 96.9461°
orbit number at epoch: 36552

The dashed part of the orbit path shows where the satellite is in the earth's shadow,  

DLR